Regional Weather Roundup
Issued by NWS

Home | Current Version | Previous Version | Graphics & Text | Print | Product List | Glossary On
Versions: 1 2 3 4 5 6 7 8 9 10 11 12 13 14 15 16 17 18 19 20 21 22 23 24 25 26 27 28 29 30 31 32 33 34 35 36 37 38 39 40 41 42 43 44 45 46 47 48 49 50
844
ASUS43 KLSX 192257
RWRMO

WEATHER SUMMARY FOR MISSOURI
NATIONAL WEATHER SERVICE SPRINGFIELD MO
600 PM CDT THU APR 19 2018

NOTE: "FAIR" INDICATES FEW OR NO CLOUDS BELOW 12,000 FEET WITH NO
       SIGNIFICANT WEATHER AND/OR OBSTRUCTIONS TO VISIBILITY.
       CURRENT SKY AND/OR WEATHER CONDITIONS ARE NOT AVAILABLE FOR
       CHILLICOTHE AND FARMINGTON.

MOZ001>031-035>038-043-044-053-054-200000-
...NORTHERN AND WESTERN MISSOURI...

CITY           SKY/WX    TMP DP  RH WIND       PRES   REMARKS
KANSAS CTY INT MOSUNNY   57  29  34 E7        30.36F
ST JOSEPH      SUNNY     59  29  31 SE9       30.37F
CHILLICOTHE      N/A     57  29  34 E9        30.40F

$$
MOZ066>068-077>081-088>096-101>105-200000-
...SOUTHWEST MISSOURI...

CITY           SKY/WX    TMP DP  RH WIND       PRES   REMARKS
SPRINGFIELD    SUNNY     56  31  38 NE13      30.35F
JOPLIN         SUNNY     55  33  43 NE9G20    30.34F
BRANSON        MOSUNNY   55  28  35 N10       30.35S

$$
MOZ032>034-039>042-045>050-055>058-069>072-200000-
...CENTRAL MISSOURI...

CITY           SKY/WX    TMP DP  RH WIND       PRES   REMARKS
COLUMBIA       NOT AVBL
JEFFERSON CITY SUNNY     57  29  34 N8        30.40S
ROLLA          SUNNY     54  30  40 NE9       30.38S
SEDALIA        SUNNY     56  31  38 NE12      30.40F
WARRENSBURG    SUNNY     55  30  38 NE6       30.38F

$$
MOZ051-052-059>065-200000-
...EAST CENTRAL MISSOURI...

CITY           SKY/WX    TMP DP  RH WIND       PRES   REMARKS
ST LOUIS INTL  MOSUNNY   56  30  37 NE10      30.40S

$$
MOZ072>076-082>087-097>100-106>115-200000-
...SOUTH CENTRAL AND SOUTHEAST MISSOURI...

CITY           SKY/WX    TMP DP  RH WIND       PRES   REMARKS
CAPE GIRARDEAU FAIR      53  33  46 N15G24    30.37S
POPLAR BLUFF   FAIR      54  36  50 NE10      30.37R
WEST PLAINS    SUNNY     55  29  36 NE10      30.36R

$$




USA.gov is the U.S. government's official web portal to all federal, state and local government web resources and services.